| time (UTC) | temp C | wind direction | speed KPH | gust KPH | rain 1hr cm | rain 24hr cm | rain mn cm | humidity % | barometer mb |
| 20260510140054 | 11 | 227 | 0.0 | 3.2 | 0.00 | 0.00 | 0.00 | ||
| 20260510130107 | 10 | 206 | 0.0 | 3.2 | 0.00 | 0.00 | 0.00 | ||
| 20260510123046 | 10 | 211 | 0.0 | 3.2 | 0.00 | 0.00 | 0.00 | ||
| 20260510113037 | 10 | 236 | 1.6 | 3.2 | 0.00 | 0.00 | 0.00 | ||
| 20260510110108 | 10 | 265 | 0.0 | 3.2 | 0.00 | 0.00 | 0.00 | ||
| 20260510103045 | 10 | 252 | 0.0 | 1.6 | 0.00 | 0.00 | 0.00 | ||
| 20260510100057 | 10 | 242 | 0.0 | 3.2 | 0.00 | 0.00 | 0.00 | ||
| 20260510093038 | 10 | 244 | 0.0 | 1.6 | 0.00 | 0.00 | 0.00 | ||
| 20260510083049 | 11 | 235 | 0.0 | 1.6 | 0.00 | 0.00 | 0.00 | ||
| 20260510073038 | 11 | 237 | 1.6 | 6.4 | 0.00 | 0.00 | 0.00 | ||
| 20260510070104 | 11 | 252 | 0.0 | 1.6 | 0.00 | 0.00 | 0.00 | ||
| 20260510063046 | 11 | 242 | 0.0 | 1.6 | 0.00 | 0.00 | 0.00 | ||
| 20260510060055 | 11 | 212 | 0.0 | 0.0 | 0.00 | 0.00 | 0.00 | ||
| 20260510053037 | 12 | 212 | 0.0 | 0.0 | 0.00 | 0.00 | 0.00 | ||
| 20260510043048 | 12 | 306 | 0.0 | 3.2 | 0.00 | 0.00 | 0.00 | ||
| 20260510040057 | 13 | 240 | 0.0 | 9.7 | 0.00 | 0.00 | 0.00 | ||
| 20260510033035 | 15 | 252 | 0.0 | 6.4 | 0.00 | 0.00 | 0.00 | ||
| 20260510030106 | 16 | 226 | 0.0 | 3.2 | 0.00 | 0.00 | 0.00 | ||
| 20260510023043 | 17 | 256 | 0.0 | 1.6 | 0.00 | 0.00 | 0.00 | ||
| 20260510020051 | 17 | 212 | 3.2 | 8.0 | 0.00 | 0.00 | 0.00 | ||
| 20260510013051 | 18 | 248 | 0.0 | 11.3 | 0.00 | 0.00 | 0.00 | ||
| 20260510010100 | 18 | 211 | 1.6 | 8.0 | 0.00 | 0.00 | 0.00 | ||
| 20260510003040 | 19 | 260 | 3.2 | 11.3 | 0.00 | 0.00 | 0.00 | ||
| 20260510000107 | 20 | 236 | 1.6 | 9.7 | 0.00 | 0.00 | 0.00 | ||
| 20260509233046 | 21 | 93 | 3.2 | 8.0 | 0.00 | 0.00 | 0.00 | ||
| 20260509230054 | 21 | 271 | 0.0 | 4.8 | 0.00 | 0.00 | 0.00 | ||
| 20260509223053 | 21 | 275 | 0.0 | 4.8 | 0.00 | 0.00 | 0.00 | ||
| 20260509220100 | 21 | 64 | 1.6 | 4.8 | 0.00 | 0.00 | 0.00 | ||
| 20260509213039 | 21 | 308 | 1.6 | 4.8 | 0.00 | 0.00 | 0.00 | ||
| 20260509210106 | 21 | 146 | 0.0 | 8.0 | 0.00 | 0.00 | 0.00 | ||
| 20260509203050 | 19 | 64 | 4.8 | 9.7 | 0.00 | 0.00 | 0.00 | ||
| 20260509200103 | 18 | 81 | 1.6 | 11.3 | 0.00 | 0.00 | 0.00 | ||
| 20260509193045 | 18 | 71 | 0.0 | 9.7 | 0.00 | 0.00 | 0.00 | ||
| 20260509180105 | 16 | 79 | 4.8 | 8.0 | 0.00 | 0.00 | 0.00 | ||
| 20260509173044 | 16 | 172 | 3.2 | 6.4 | 0.00 | 0.00 | 0.00 | ||
| 20260509160104 | 13 | 68 | 0.0 | 8.0 | 0.00 | 0.00 | 0.00 | ||
| 20260509150058 | 11 | 65 | 1.6 | 6.4 | 0.00 | 0.00 | 0.00 |